Gunnison, CO

10:54 AM MDT on April 30, 2017 (GMT -0600)
Gunnison County

Weather History for KGUC - July, 2013

Change the Weather History Date:

Friday, July 19, 2013

  Actual Average Record
Temperature  
Mean Temperature 64 °F -  
Max Temperature 80 °F 77 °F 87 °F (2002)
Min Temperature 48 °F 45 °F 41 °F (2000)
Degree Days  
Heating Degree Days 1    
Growing Degree Days 14 (Base 50)    
Moisture  
Dew Point 47 °F    
Average Humidity 63    
Maximum Humidity 87    
Minimum Humidity 23    
Precipitation  
Precipitation 0.01 in - - ()
Sea Level Pressure  
Sea Level Pressure 30.39 in    
Wind  
Wind Speed 4 mph (NW)    
Max Wind Speed 26 mph    
Max Gust Speed 34 mph    
Visibility 10 miles    
Events      
Averages and records for this station are not official NWS values.
T = Trace of Precipitation, MM = Missing Value Source: NWS Daily Summary

Daily Weather History Graph

Daily Weather History Graph

Search for Another Location

Airport or City:

Trip Planner

Search our weather history database for the weather conditions in past years. The results will help you decide how hot, cold, wet, or windy it might be!

Date:

Astronomy

Jul. 19, 2013 Rise Set
Actual Time 5:58 AM MDT 8:28 PM MDT
Civil Twilight 5:28 AM MDT 8:59 PM MDT
Nautical Twilight 4:50 AM MDT 9:36 PM MDT
Astronomical Twilight 4:08 AM MDT 10:18 PM MDT
Moon 5:34 PM MDT (7/19) 2:42 AM MDT (7/19)
Length of Visible Light 15h 30m
Length of Day
14h 29m
Waxing Gibbous, 87% of the Moon is Illuminated
Jul 19
Waxing Gibbous
Jul 22
Full
Jul 29
Last Quarter
Aug 6
New
Aug 14
First Quarter

Hourly Weather History & Observations

Time (MDT) Temp. Dew Point Humidity Pressure Visibility Wind Dir Wind Speed Gust Speed Precip Events Conditions
12:15 AM 57.2 °F 48.2 °F 72% 30.45 in 10.0 mi Calm Calm - N/A   Clear
12:35 AM 57.2 °F 46.4 °F 67% 30.44 in 10.0 mi NE 5.8 mph - N/A   Clear
12:55 AM 55.4 °F 46.4 °F 72% 30.44 in 10.0 mi Calm Calm - N/A   Clear
1:15 AM 55.4 °F 46.4 °F 72% 30.43 in 10.0 mi WSW 5.8 mph - N/A   Clear
1:35 AM 53.6 °F 46.4 °F 77% 30.43 in 10.0 mi South 4.6 mph - N/A   Clear
1:55 AM 53.6 °F 46.4 °F 77% 30.43 in 10.0 mi WSW 3.5 mph - N/A   Clear
2:15 AM 53.6 °F 44.6 °F 72% 30.43 in 10.0 mi Calm Calm - N/A   Clear
2:35 AM 53.6 °F 46.4 °F 77% 30.43 in 10.0 mi SSE 4.6 mph - N/A   Clear
2:55 AM 51.8 °F 44.6 °F 76% 30.43 in 10.0 mi Calm Calm - N/A   Clear
3:15 AM 51.8 °F 44.6 °F 76% 30.42 in 10.0 mi Calm Calm - N/A   Clear
3:35 AM 51.8 °F 44.6 °F 76% 30.42 in 10.0 mi Calm Calm - N/A   Clear
4:15 AM 50.0 °F 44.6 °F 82% 30.42 in 10.0 mi NNE 6.9 mph - N/A   Clear
4:35 AM 50.0 °F 44.6 °F 82% 30.42 in 10.0 mi North 5.8 mph - N/A   Clear
5:15 AM 48.2 °F 44.6 °F 87% 30.42 in 10.0 mi Calm Calm - N/A   Clear
5:35 AM 48.2 °F 42.8 °F 82% 30.42 in 10.0 mi North 6.9 mph - N/A   Clear
5:55 AM 48.2 °F 44.6 °F 87% 30.42 in 10.0 mi NE 4.6 mph - N/A   Clear
6:15 AM 48.2 °F 42.8 °F 82% 30.43 in 10.0 mi Calm Calm - N/A   Clear
6:35 AM 48.2 °F 42.8 °F 82% 30.43 in 10.0 mi NNW 4.6 mph - N/A   Clear
6:55 AM 50.0 °F 44.6 °F 82% 30.44 in 10.0 mi Calm Calm - N/A   Clear
7:15 AM 50.0 °F 44.6 °F 82% 30.44 in 10.0 mi Calm Calm - N/A   Clear
7:35 AM 51.8 °F 46.4 °F 82% 30.44 in 10.0 mi Calm Calm - N/A   Clear
7:55 AM 53.6 °F 46.4 °F 77% 30.44 in 10.0 mi Calm Calm - N/A   Clear
8:15 AM 55.4 °F 46.4 °F 72% 30.44 in 10.0 mi Calm Calm - N/A   Clear
8:35 AM 55.4 °F 46.4 °F 72% 30.44 in 10.0 mi Calm Calm - N/A   Clear
8:55 AM 57.2 °F 48.2 °F 72% 30.44 in 10.0 mi Calm Calm - N/A   Clear
9:15 AM 57.2 °F 46.4 °F 67% 30.44 in 10.0 mi ENE 3.5 mph - N/A   Clear
9:55 AM 60.8 °F 48.2 °F 63% 30.42 in 10.0 mi East 3.5 mph - N/A   Clear
10:15 AM 62.6 °F 46.4 °F 55% 30.42 in 10.0 mi East 4.6 mph - N/A   Clear
10:35 AM 64.4 °F 48.2 °F 56% 30.41 in 10.0 mi Calm Calm - N/A   Clear
10:55 AM 66.2 °F 46.4 °F 49% 30.40 in 10.0 mi NW 4.6 mph - N/A   Clear
11:15 AM 68.0 °F 46.4 °F 46% 30.40 in 10.0 mi Calm Calm - N/A   Clear
11:55 AM 69.8 °F 48.2 °F 46% 30.39 in 10.0 mi NW 4.6 mph - N/A   Clear
12:15 PM 73.4 °F 46.4 °F 38% 30.38 in 10.0 mi Calm Calm - N/A   Clear
12:35 PM 73.4 °F 46.4 °F 38% 30.37 in 10.0 mi SW 3.5 mph - N/A   Clear
12:55 PM 73.4 °F 42.8 °F 33% 30.35 in 10.0 mi South 3.5 mph - N/A   Clear
1:15 PM 75.2 °F 42.8 °F 31% 30.34 in 10.0 mi WSW 5.8 mph - N/A   Clear
1:35 PM 75.2 °F 42.8 °F 31% 30.33 in 10.0 mi SW 6.9 mph - N/A   Clear
1:55 PM 77.0 °F 41.0 °F 28% 30.32 in 10.0 mi WSW 5.8 mph - N/A   Clear
2:15 PM 78.8 °F 39.2 °F 24% 30.31 in 10.0 mi SSW 4.6 mph - N/A   Clear
2:35 PM 78.8 °F 37.4 °F 23% 30.31 in 10.0 mi East 4.6 mph - N/A   Clear
2:55 PM 80.6 °F 39.2 °F 23% 30.30 in 10.0 mi ENE 3.5 mph - N/A   Clear
3:15 PM 80.6 °F 41.0 °F 24% 30.29 in 10.0 mi North 17.3 mph 25.3 mph N/A   Partly Cloudy
3:35 PM 78.8 °F 46.4 °F 32% 30.31 in 10.0 mi East 23.0 mph 29.9 mph N/A   Partly Cloudy
3:55 PM 75.2 °F 46.4 °F 36% 30.31 in 10.0 mi East 25.3 mph 34.5 mph N/A   Clear
4:15 PM 73.4 °F 44.6 °F 36% 30.31 in 10.0 mi East 26.5 mph 31.1 mph N/A   Clear
4:35 PM 71.6 °F 44.6 °F 38% 30.31 in 10.0 mi East 16.1 mph 21.9 mph N/A   Clear
5:15 PM 69.8 °F 46.4 °F 43% 30.34 in 10.0 mi East 13.8 mph - N/A   Mostly Cloudy
5:35 PM 69.8 °F 46.4 °F 43% 30.35 in 10.0 mi SE 11.5 mph - N/A   Overcast
5:55 PM 68.0 °F 46.4 °F 46% 30.37 in 10.0 mi SW 8.1 mph - N/A   Overcast
6:15 PM 60.8 °F 51.8 °F 72% 30.37 in 10.0 mi WSW 11.5 mph 17.3 mph N/A   Overcast
6:35 PM 60.8 °F 51.8 °F 72% 30.38 in 10.0 mi WSW 11.5 mph - N/A   Overcast
6:55 PM 60.8 °F 51.8 °F 72% 30.37 in 10.0 mi SW 11.5 mph - 0.01 in   Overcast
7:15 PM 60.8 °F 51.8 °F 72% 30.38 in 10.0 mi WSW 4.6 mph - N/A   Scattered Clouds
7:35 PM 60.8 °F 51.8 °F 72% 30.38 in 10.0 mi WSW 8.1 mph - N/A   Clear
7:55 PM 60.8 °F 51.8 °F 72% 30.37 in 10.0 mi WSW 8.1 mph - N/A   Clear
8:15 PM 60.8 °F 51.8 °F 72% 30.37 in 10.0 mi West 8.1 mph - N/A   Clear
8:35 PM 59.0 °F 51.8 °F 77% 30.37 in 10.0 mi WSW 3.5 mph - N/A   Clear
9:15 PM 60.8 °F 51.8 °F 72% 30.38 in 10.0 mi ESE 4.6 mph - N/A   Clear
9:35 PM 60.8 °F 51.8 °F 72% 30.39 in 10.0 mi ENE 3.5 mph - N/A   Clear
9:55 PM 59.0 °F 51.8 °F 77% 30.40 in 10.0 mi NW 3.5 mph - N/A   Clear
10:15 PM 59.0 °F 51.8 °F 77% 30.40 in 10.0 mi NNW 4.6 mph - N/A   Scattered Clouds
10:35 PM 57.2 °F 50.0 °F 77% 30.39 in 10.0 mi NNW 4.6 mph - N/A   Scattered Clouds
10:55 PM 57.2 °F 50.0 °F 77% 30.40 in 10.0 mi NNW 3.5 mph - N/A   Clear
11:15 PM 57.2 °F 50.0 °F 77% 30.40 in 10.0 mi Calm Calm - N/A   Mostly Cloudy
11:35 PM 57.2 °F 50.0 °F 77% 30.40 in 10.0 mi NNW 3.5 mph - N/A   Mostly Cloudy
11:55 PM 55.4 °F 48.2 °F 77% 30.40 in 10.0 mi North 4.6 mph - N/A   Partly Cloudy